Tracking 25709 objects as of 23-May-2022
HD Live streaming from Space Station
objects crossing your sky now

CRRES DEB (CANISTER)

Track CRRES DEB (CANISTER) now!


NORAD ID: 21594
Int'l Code: 1990-065K
Perigee: 484.9 km
Apogee: 33,328.4 km
Inclination: 17.1 °
Period: 589.1 minutes
Semi major axis: 23277 km
RCS: 0.1675 m2 (medium)
Launch date: July 25, 1990
Source: United States (US)
Launch site: AIR FORCE EASTERN TEST RANGE (AFETR)

Note: This is SATELLITE DEBRIS
aabbcc
Your satellite tracking list
Your tracking list is empty




NASA's NSSDC Master Catalog

Two Line Element Set (TLE):
1 21594U 90065K   22142.78066109 -.00000158  00000-0  96427-3 0  9995
2 21594  17.1358 314.3712 7054745  79.5120 346.9366  2.44452445271220
Source of the keplerian elements: AFSPC